Location: Lachepaillet
(43.4918°N, 1.4874°W)
Time: 23:34:18
(UTC+00:00)

Cosmos 2322 - Pass Details

Date: 15 May 2026
Orbit: 840 x 853 km, 71.0° (Epoch: 11 June)

Event Time Altitude Azimuth Distance (km) Brightness Sun altitude
Rises 23:34:23 0° 331° (NNW) 3,422 7.9 -27.1°
Reaches altitude 10° 23:36:52 10° 327° (NNW) 2,480 6.9 -27.2°
Enters shadow 23:42:18 57° 257° (WSW) 993 3.9 -27.3°
